Weather History for Guymon, OK

Change the Weather History Date:

Saturday, December 24, 2011

  Actual Average Record
Temperature  
Mean Temperature 23 °F 34 °F  
Max Temperature 35 °F 47 °F 58 °F (2005)
Min Temperature 11 °F 21 °F -6 °F (2004)
Degree Days  
Heating Degree Days 42 31  
Month to date heating degree days 788 708  
Since 1 July heating degree days 1566 1599  
Cooling Degree Days 0 0  
Month to date cooling degree days 0 0  
Year to date cooling degree days 2163 1482  
Moisture  
Dew Point 11 °F    
Average Humidity 65    
Maximum Humidity 75    
Minimum Humidity 54    
Precipitation  
Precipitation 0.00 in 0.02 in 0.00 in (2014)
Month to date precipitation 1.25 0.51  
Year to date precipitation 8.57 19.17  
Snow  
Snow 0.00 in - - ()
Month to date snowfall 7.6  
Since 1 July snowfall 9.1  
Snow Depth 5.00 in    
Sea Level Pressure  
Sea Level Pressure 30.46 in    
Wind  
Wind Speed 7 mph (WNW)    
Max Wind Speed 18 mph    
Max Gust Speed 22 mph    
Visibility 10 miles    
Events Rain    
T = Trace of Precipitation, MM = Missing Value Source: NWS Daily Summary

Daily Weather History Graph

Daily Weather History Graph

Search for Another Location

Airport:

Trip Planner

Search our weather history database for the weather conditions in past years. The results will help you decide how hot, cold, wet, or windy it might be!

Date:

Astronomy

Dec. 24, 2011 Rise Set
Actual Time 7:55 AM CST 5:35 PM CST
Civil Twilight 7:27 AM CST 6:04 PM CST
Nautical Twilight 6:54 AM CST 6:36 PM CST
Astronomical Twilight 6:23 AM CST 7:08 PM CST
Moon 7:45 AM CST (12/24) 5:50 PM CST (12/24)
Length of Visible Light 10h 37m
Length of Day
9h 39m
New Moon, 0% of the Moon is Illuminated
Dec 24
New Moon
Dec 24
New
Jan 1
First Quarter
Jan 9
Full
Jan 16
Last Quarter

Hourly Weather History & Observations

Time (CST) Temp. Windchill Dew Point Humidity Pressure Visibility Wind Dir Wind Speed Gust Speed Precip Events Conditions
12:53 AM 19.0 °F 10.0 °F 7.0 °F 59% 30.43 in 10.0 mi WSW 6.9 mph - N/A   Clear
1:53 AM 16.0 °F - 6.1 °F 65% 30.42 in 10.0 mi Calm Calm - N/A   Clear
2:53 AM 15.1 °F - 5.0 °F 64% 30.42 in 10.0 mi Calm Calm - N/A   Clear
3:53 AM 15.1 °F 7.7 °F 3.9 °F 61% 30.43 in 10.0 mi WSW 4.6 mph - N/A   Clear
4:53 AM 17.1 °F - 3.0 °F 54% 30.43 in 10.0 mi Calm Calm - N/A   Clear
5:53 AM 12.9 °F 2.6 °F 1.9 °F 62% 30.47 in 10.0 mi WSW 6.9 mph - N/A   Clear
6:53 AM 16.0 °F - 3.0 °F 57% 30.47 in 10.0 mi Calm Calm - N/A   Clear
7:53 AM 10.9 °F 4.7 °F 1.9 °F 67% 30.51 in 10.0 mi West 3.5 mph - N/A   Clear
8:53 AM 18.0 °F 12.7 °F 6.1 °F 60% 30.49 in 10.0 mi SSW 3.5 mph - N/A   Clear
9:53 AM 23.0 °F - 9.0 °F 55% 30.49 in 10.0 mi Calm Calm - N/A   Clear
10:53 AM 26.1 °F 18.4 °F 12.9 °F 58% 30.49 in 10.0 mi NW 6.9 mph - N/A   Clear
11:53 AM 30.9 °F 22.2 °F 18.0 °F 59% 30.48 in 10.0 mi NW 10.4 mph - N/A   Clear
12:53 PM 34.0 °F 25.0 °F 19.0 °F 54% 30.44 in 10.0 mi NW 12.7 mph - 0.00 in Rain Light Rain
1:53 PM 35.1 °F 31.0 °F 21.0 °F 57% 30.42 in 10.0 mi NW 4.6 mph - 0.00 in   Clear
2:53 PM 35.1 °F 28.6 °F 21.9 °F 59% 30.42 in 10.0 mi NW 8.1 mph - N/A   Clear
3:53 PM 34.0 °F 28.8 °F 21.9 °F 61% 30.43 in 10.0 mi NW 5.8 mph - N/A   Clear
4:53 PM 30.9 °F 22.2 °F 19.9 °F 64% 30.44 in 10.0 mi NNW 10.4 mph - N/A   Clear
6:53 PM 28.0 °F 17.0 °F 17.1 °F 63% 30.47 in 10.0 mi NW 13.8 mph - N/A   Clear
7:53 PM 26.1 °F 18.4 °F 16.0 °F 66% 30.48 in 10.0 mi WNW 6.9 mph - N/A   Clear
8:53 PM 25.0 °F 14.8 °F 14.0 °F 63% 30.47 in 10.0 mi NW 10.4 mph - N/A   Clear
9:53 PM 23.0 °F 13.1 °F 12.0 °F 63% 30.46 in 10.0 mi NW 9.2 mph - N/A   Clear
10:53 PM 24.1 °F 12.5 °F 12.0 °F 60% 30.46 in 10.0 mi NW 12.7 mph - N/A   Clear
11:53 PM 24.1 °F 12.0 °F 10.9 °F 57% 30.46 in 10.0 mi NW 13.8 mph - N/A   Clear